Starlink 5880

operational
NORAD ID: 57220 Int'l Des: 2023-094 Owner: SPXS Country: US Constellation: starlink
LEOCIRCULAR

About Starlink 5880

Description loading...

Live Position

Loading 3D Globe...

Upcoming Passes

Altitude History

Altitude vs Time

uPlot chart will show altitude changes over time

Two-Line Element Set

1 57220U 23094C 25306.42109168 .00000965 00000-0 86537-4 0 9994
2 57220 43.0044 2.0281 0001210 262.4402 97.6303 15.02532696127973
Epoch: Nov 2, 2025 • Age: 16 hours

Current Status

Altitude 563.1 km
Velocity 7.59 km/s
Sub-Earth Point 43.11°N, 5.46°E
Launch Date Jul 7, 2023
Age 2.3 years
Type internet

Technical Details

Classification Payload
Mass 305.00 kg
Dry Mass 290.00 kg
Total Mass 305.00 kg
Length 0.20 m
Diameter 2.80 m
Span 9.00 m
Shape Box + pan
Manufacturer SPXS
Bus Type Starlink
Phase Status In Orbit
Owner/State SPXS/US

Large Constellations

Loading constellations...